Beaufort, NC

12:54 AM EDT on March 30, 2017 (GMT -0400)
Smith

Weather History for KMRH - October, 2011

Change the Weather History Date:

Tuesday, October 18, 2011

  Actual Average Record
Temperature  
Mean Temperature 74 °F -  
Max Temperature 79 °F 75 °F 87 °F (1990)
Min Temperature 71 °F 55 °F 33 °F (1970)
Cooling Degree Days 10    
Growing Degree Days 24 (Base 50)    
Moisture  
Dew Point 68 °F    
Average Humidity 84    
Maximum Humidity 97    
Minimum Humidity 64    
Precipitation  
Precipitation 0.48 in - - ()
Sea Level Pressure  
Sea Level Pressure 29.82 in    
Wind  
Wind Speed 9 mph (South)    
Max Wind Speed 22 mph    
Max Gust Speed 31 mph    
Visibility 8 miles    
Events Rain    
Averages and records for this station are not official NWS values.
T = Trace of Precipitation, MM = Missing Value Source: NWS Daily Summary

Daily Weather History Graph

Daily Weather History Graph

Search for Another Location

Airport or City:

Trip Planner

Search our weather history database for the weather conditions in past years. The results will help you decide how hot, cold, wet, or windy it might be!

Date:

Astronomy

Oct. 18, 2011 Rise Set
Actual Time 7:14 AM EDT 6:28 PM EDT
Civil Twilight 6:49 AM EDT 6:54 PM EDT
Nautical Twilight 6:19 AM EDT 7:23 PM EDT
Astronomical Twilight 5:50 AM EDT 7:52 PM EDT
Moon 11:15 PM EDT (10/18) 12:55 PM EDT (10/18)
Length of Visible Light 12h 04m
Length of Day
11h 13m
Waning Gibbous, 65% of the Moon is Illuminated
Oct 18
Waning Gibbous
Oct 19
Last Quarter
Oct 26
New
Nov 2
First Quarter
Nov 10
Full

Hourly Weather History & Observations

Time (EDT) Temp. Dew Point Humidity Pressure Visibility Wind Dir Wind Speed Gust Speed Precip Events Conditions
12:56 AM 72.0 °F 68.0 °F 87% 29.91 in 10.0 mi SW 11.5 mph - N/A   Clear
1:56 AM 72.0 °F 68.0 °F 87% 29.90 in 10.0 mi SW 10.4 mph - N/A   Clear
2:56 AM 72.0 °F 68.0 °F 87% 29.90 in 10.0 mi SW 9.2 mph - N/A   Clear
3:56 AM 71.1 °F 66.9 °F 87% 29.90 in 10.0 mi SW 8.1 mph - N/A   Clear
4:56 AM 71.1 °F 68.0 °F 90% 29.90 in 10.0 mi WSW 9.2 mph - N/A   Clear
5:56 AM 71.1 °F 68.0 °F 90% 29.91 in 10.0 mi SW 9.2 mph - N/A   Clear
6:56 AM 72.0 °F 66.0 °F 81% 29.91 in 10.0 mi West 10.4 mph - N/A   Clear
7:56 AM 72.0 °F 66.0 °F 81% 29.92 in 10.0 mi WSW 6.9 mph - N/A   Clear
8:56 AM 73.9 °F 66.9 °F 79% 29.94 in 10.0 mi WSW 8.1 mph - N/A   Scattered Clouds
9:56 AM 75.9 °F 66.0 °F 71% 29.93 in 10.0 mi West 9.2 mph - N/A   Clear
10:56 AM 77.0 °F 64.0 °F 64% 29.92 in 10.0 mi WSW 8.1 mph - N/A   Clear
12:56 PM 78.1 °F 66.0 °F 66% 29.89 in 10.0 mi SW 8.1 mph - N/A   Clear
1:56 PM 78.1 °F 66.0 °F 66% 29.86 in 10.0 mi SSW 8.1 mph - N/A   Clear
2:56 PM 78.1 °F 64.9 °F 64% 29.83 in 10.0 mi South 6.9 mph - N/A   Clear
3:56 PM 78.1 °F 66.0 °F 66% 29.83 in 10.0 mi South 5.8 mph - N/A   Clear
4:56 PM 77.0 °F 66.0 °F 69% 29.83 in 10.0 mi ESE 6.9 mph - N/A   Scattered Clouds
5:56 PM 75.0 °F 68.0 °F 79% 29.82 in 10.0 mi ESE 4.6 mph - N/A   Clear
6:56 PM 73.9 °F 68.0 °F 82% 29.81 in 10.0 mi ESE 3.5 mph - N/A   Clear
7:56 PM 75.0 °F 69.1 °F 82% 29.80 in 10.0 mi ESE 6.9 mph - N/A   Mostly Cloudy
8:56 PM 75.0 °F 70.0 °F 84% 29.78 in 10.0 mi ESE 8.1 mph - 0.00 in Rain Light Rain
9:56 PM 73.0 °F 70.0 °F 90% 29.75 in 2.5 mi ESE 21.9 mph 31.1 mph 0.17 in Rain Heavy Rain
10:04 PM 71.6 °F 69.8 °F 94% 29.75 in 1.2 mi SE 11.5 mph 31.1 mph 0.12 in Rain Heavy Rain
10:11 PM 71.6 °F 69.8 °F 94% 29.75 in 2.0 mi SE 8.1 mph 18.4 mph 0.18 in Rain Heavy Rain
10:15 PM 71.6 °F 69.8 °F 94% 29.75 in 3.0 mi SE 8.1 mph 18.4 mph 0.19 in Rain Rain
10:17 PM 71.6 °F 69.8 °F 94% 29.75 in 4.0 mi SSE 12.7 mph 16.1 mph 0.19 in Rain Rain
10:25 PM 71.6 °F 69.8 °F 94% 29.74 in 5.0 mi SE 11.5 mph 20.7 mph 0.20 in Rain Rain
10:37 PM 71.6 °F 69.8 °F 94% 29.73 in 7.0 mi SE 13.8 mph 20.7 mph 0.21 in Rain Light Rain
10:56 PM 72.0 °F 69.1 °F 91% 29.71 in 6.0 mi ESE 13.8 mph 24.2 mph 0.23 in Rain Rain
11:18 PM 71.6 °F 69.8 °F 94% 29.69 in 5.0 mi ESE 8.1 mph 17.3 mph 0.05 in Rain Rain
11:41 PM 71.6 °F 69.8 °F 94% 29.67 in 7.0 mi SE 8.1 mph - 0.07 in Rain Light Rain
11:56 PM 72.0 °F 71.1 °F 97% 29.66 in 8.0 mi ESE 6.9 mph - 0.08 in Rain Light Rain